STARLINK-4439, 53498

Orbit data source: Space-Track

STARLINK-4439, 53498 is a payload satellite owned by SpaceX/Seattle (US) in SSO that was launched on Fri, 12 Aug 2022 UTC via an FALCON 9 launch vehicle from the Air Force Western Test Range (AFWTR). Payload-class satellites include a variety of spacecraft equipped with specific instruments for various scientific and technological missions. These include communications satellites like Starlink; space stations such as the ISS; scientific satellites like the Hubble; Earth observation satellites from companies like Planet Labs, Umbra, and HawkEye 360; GPS; miniature CubeSats for education and research; and military/defense satellites.

Loading next visibility...
Identifier
53498, 2022-099AK
Orbit
SSO
Country
Flag of USUS
Related business
Manufacturer
SpaceX/Seattle
Mission
Operational Commercial Communications
Bus & Motor
STARLINK, Unknown motor
Mass
300 kg wet, ~275 kg dry
Launch date (UTC)
2022-08-12 (4 years ago)
Launch vehicle
FALCON 9
Launch site
Air Force Western Test Range (AFWTR)
Object type
Payload
Rocket body
Debris
Shape & HBR
Box + 1 Pan, 10.1 m
Radar Cross Section
13.562 m², Large (>1 m²)

Expand to show TLE details & history
Last TLE update: 16 hours ago

TLE from 16 hours ago
0 STARLINK-4439
1 53498U 22099AK  26145.29315595 -.00000613  00000-0 -38427-4 0  9998
2 53498  97.4482 266.2963 0001400 171.2562 188.8690 15.05656935207574
Epoch: 2026-05-25T07:02Z
TLE epoch observation values (Epoch: 2026-05-25T07:02:08.674Z)
Latitude
0.00002°
Longitude
-82.12287°
Altitude
553.518 km
Speed
7.584 km/s
True Right ascension
17h 45m 11s
True Declination
0° 00' 00"
Sunlit
Object was in full shadow at epoch
Visualization orbit readout
Latitude
Unknown
Longitude
Unknown
Altitude
Unknown
Speed
Unknown
Apparent Right ascension
Unknown
Apparent Declination
Unknown
Sunlit
N/A
Visualization observer readout
Local Sidereal Time
08:01:09
Azimuth
Unknown
Elevation
Unknown
Doppler factor
Unknown
Orbital elements
Apogee altitude
547.446 km
Perigee altitude
545.507 km
Semi-major axis
6,924.614 km
Eccentricity
0.00014
Inclination
97.4482°
RAAN
266.2963°
Arg. of periapsis
171.2562°
True anomaly
188.86653°
Mean anomaly
188.869°
Eccentric anomaly
188.86776°
Mean motion
3.7666 °/min
Orbital period
95.58 mins
BSTAR
-0.000038427
Loading maneuver chart data...
Computing Atmospheric mass density...
Loading historical data...
Loading historical data...
Loading historical data...
Loading historical data...
Loading historical data...
Loading historical data...
Loading historical data...

Documentation

Showing up to 5 results
|